Location: Austin
(30.3000°N, 97.7500°W)
Time: 23:33:45
(UTC-05:00)

SPOT 5 - Pass Details

Date: 08 April 2026
Orbit: 617 x 803 km, 98.0° (Epoch: 20 April)

Event Time Altitude Azimuth Distance (km) Brightness Sun altitude
Exits shadow 21:49:13 19° 194° (SSW) 1,744 4.7 -24.5°
Maximum altitude 21:52:34 46° 260° (W) 977 3.8 -25.1°
Drops below altitude 10° 21:57:09 10° 333° (NNW) 2,168 6.0 -26.0°
Sets 21:59:26 0° 340° (NNW) 3,059 6.8 -26.4°
